AAL858 KMIA-MBPV

Flight info

Callsign AAL858
Flight time 0h 59m
Altitude 37000
Route KLADA2 BITAC DCT SOLEI
Aircraft A319/M-SDE3FGHIRWY/LB1

Departure

Time 2026-04-25 23:11
Airport Miami International Airport (KMIA)

Arrival

Time 2026-04-26 00:11
Airport Providenciales International Airport (MBPV)
Time Latitude Longitude Altitude Speed Heading
2026-04-25 22:49 25.79827 -80.28165 19 ft 0 kts 182°
2026-04-25 23:01 25.79841 -80.28164 19 ft 2 kts 196°
2026-04-25 23:02 25.79857 -80.28161 17 ft 2 kts 204°
2026-04-25 23:02 25.79872 -80.28153 17 ft 2 kts 217°
2026-04-25 23:02 25.79884 -80.28141 17 ft 2 kts 233°
2026-04-25 23:02 25.79892 -80.28125 17 ft 2 kts 251°
2026-04-25 23:03 25.79896 -80.28108 17 ft 2 kts 266°
2026-04-25 23:03 25.79897 -80.28097 17 ft 0 kts 269°
2026-04-25 23:05 25.79896 -80.28112 17 ft 6 kts 269°
2026-04-25 23:05 25.79937 -80.28148 18 ft 11 kts 345°
2026-04-25 23:06 25.79958 -80.28220 19 ft 11 kts 267°
2026-04-25 23:06 25.79968 -80.28304 21 ft 11 kts 307°
2026-04-25 23:06 25.80032 -80.28352 21 ft 12 kts 290°
2026-04-25 23:06 25.80030 -80.28451 19 ft 13 kts 266°
2026-04-25 23:07 25.80026 -80.28556 22 ft 15 kts 268°
2026-04-25 23:07 25.80022 -80.28679 26 ft 16 kts 268°
2026-04-25 23:07 25.80016 -80.28804 27 ft 17 kts 268°
2026-04-25 23:07 25.80010 -80.28943 25 ft 19 kts 267°
2026-04-25 23:08 25.80004 -80.29095 25 ft 20 kts 267°
2026-04-25 23:08 25.79998 -80.29252 25 ft 21 kts 267°
2026-04-25 23:08 25.79990 -80.29428 19 ft 25 kts 267°
2026-04-25 23:08 25.79982 -80.29628 18 ft 24 kts 267°
2026-04-25 23:09 25.79983 -80.29726 20 ft 0 kts 287°
2026-04-25 23:10 25.79984 -80.29730 19 ft 2 kts 289°
2026-04-25 23:10 25.80006 -80.29757 19 ft 9 kts 333°
2026-04-25 23:10 25.80082 -80.29724 18 ft 15 kts 57°
2026-04-25 23:10 25.80094 -80.29594 18 ft 30 kts 88°
2026-04-25 23:11 25.80114 -80.29076 25 ft 101 kts 87°
2026-04-25 23:11 25.80155 -80.28072 22 ft 157 kts 87°
2026-04-25 23:11 25.80222 -80.26799 481 ft 168 kts 87°
2026-04-25 23:11 25.80103 -80.25520 1183 ft 166 kts 109°
2026-04-25 23:12 25.79636 -80.24353 1857 ft 168 kts 117°
2026-04-25 23:12 25.79089 -80.23120 2250 ft 189 kts 118°
2026-04-25 23:12 25.78466 -80.21729 2610 ft 213 kts 118°
2026-04-25 23:12 25.77765 -80.20174 3035 ft 238 kts 117°
2026-04-25 23:13 25.76992 -80.18460 3598 ft 258 kts 117°
2026-04-25 23:13 25.76156 -80.16659 4427 ft 267 kts 118°
2026-04-25 23:13 25.75262 -80.14828 5330 ft 273 kts 119°
2026-04-25 23:13 25.74335 -80.12966 6216 ft 279 kts 119°
2026-04-25 23:14 25.73403 -80.11049 7073 ft 285 kts 114°
2026-04-25 23:14 25.72679 -80.08975 7887 ft 292 kts 109°
2026-04-25 23:14 25.71978 -80.06875 8762 ft 296 kts 109°
2026-04-25 23:14 25.71263 -80.04719 9632 ft 301 kts 109°
2026-04-25 23:15 25.70535 -80.02516 10311 ft 311 kts 109°
2026-04-25 23:15 25.69765 -80.00177 10627 ft 334 kts 109°
2026-04-25 23:15 25.68953 -79.97711 11248 ft 345 kts 109°
2026-04-25 23:15 25.68122 -79.95198 12007 ft 350 kts 109°
2026-04-25 23:16 25.67273 -79.92637 12785 ft 356 kts 109°
2026-04-25 23:16 25.66413 -79.90050 13545 ft 361 kts 109°
2026-04-25 23:16 25.65539 -79.87421 14248 ft 366 kts 109°
2026-04-25 23:16 25.64655 -79.84764 14925 ft 370 kts 109°
2026-04-25 23:17 25.63758 -79.82074 15605 ft 374 kts 109°
2026-04-25 23:17 25.62851 -79.79353 16291 ft 378 kts 109°
2026-04-25 23:17 25.61933 -79.76601 16970 ft 383 kts 109°
2026-04-25 23:17 25.61006 -79.73823 17626 ft 387 kts 109°
2026-04-25 23:18 25.60068 -79.71011 18290 ft 391 kts 110°
2026-04-25 23:18 25.59105 -79.68174 18862 ft 395 kts 110°
2026-04-25 23:18 25.58089 -79.65330 19442 ft 399 kts 111°
2026-04-25 23:18 25.57037 -79.62474 20047 ft 402 kts 112°
2026-04-25 23:19 25.55965 -79.59603 20642 ft 405 kts 112°
2026-04-25 23:19 25.54884 -79.56707 21232 ft 409 kts 112°
2026-04-25 23:19 25.53800 -79.53786 21819 ft 412 kts 112°
2026-04-25 23:19 25.52714 -79.50834 22383 ft 416 kts 111°
2026-04-25 23:20 25.51622 -79.47855 22969 ft 419 kts 111°
2026-04-25 23:20 25.50524 -79.44852 23523 ft 423 kts 111°
2026-04-25 23:20 25.49413 -79.41819 24004 ft 426 kts 111°
2026-04-25 23:20 25.48296 -79.38779 24467 ft 429 kts 111°
2026-04-25 23:21 25.47183 -79.35746 24921 ft 432 kts 111°
2026-04-25 23:21 25.46034 -79.32618 25376 ft 435 kts 111°
2026-04-25 23:21 25.44905 -79.29542 25813 ft 438 kts 111°
2026-04-25 23:21 25.43758 -79.26417 26248 ft 441 kts 111°
2026-04-25 23:22 25.42600 -79.23262 26674 ft 444 kts 110°
2026-04-25 23:22 25.41434 -79.20095 27097 ft 446 kts 110°
2026-04-25 23:22 25.40255 -79.16903 27520 ft 449 kts 110°
2026-04-25 23:23 25.37869 -79.10468 28358 ft 455 kts 110°
2026-04-25 23:23 25.36664 -79.07225 28772 ft 458 kts 110°
2026-04-25 23:23 25.35451 -79.03954 29175 ft 461 kts 110°
2026-04-25 23:23 25.34234 -79.00662 29544 ft 465 kts 110°
2026-04-25 23:24 25.33006 -78.97339 29937 ft 468 kts 110°
2026-04-25 23:24 25.31769 -78.93999 30278 ft 471 kts 110°
2026-04-25 23:24 25.30523 -78.90645 30615 ft 473 kts 110°
2026-04-25 23:24 25.29268 -78.87277 30953 ft 475 kts 110°
2026-04-25 23:25 25.28010 -78.83896 31288 ft 477 kts 110°
2026-04-25 23:25 25.26746 -78.80501 31622 ft 478 kts 110°
2026-04-25 23:25 25.25479 -78.77103 31949 ft 480 kts 110°
2026-04-25 23:25 25.24637 -78.74850 32238 ft 479 kts 110°
2026-04-25 23:26 25.22939 -78.70309 32861 ft 477 kts 111°
2026-04-25 23:26 25.21675 -78.66924 33334 ft 475 kts 111°
2026-04-25 23:26 25.20418 -78.63556 33774 ft 475 kts 111°
2026-04-25 23:26 25.19161 -78.60194 34136 ft 475 kts 111°
2026-04-25 23:27 25.17894 -78.56818 34442 ft 476 kts 112°
2026-04-25 23:27 25.16584 -78.53462 34748 ft 477 kts 113°
2026-04-25 23:27 25.15221 -78.50112 35043 ft 478 kts 114°
2026-04-25 23:27 25.13831 -78.46777 35340 ft 479 kts 115°
2026-04-25 23:28 25.12423 -78.43435 35623 ft 480 kts 115°
2026-04-25 23:28 25.11020 -78.40092 35908 ft 481 kts 115°
2026-04-25 23:28 25.09619 -78.36730 36188 ft 482 kts 115°
2026-04-25 23:28 25.08696 -78.34499 36373 ft 482 kts 115°
2026-04-25 23:29 25.06843 -78.29987 36732 ft 483 kts 115°
2026-04-25 23:29 25.05927 -78.27746 36885 ft 484 kts 115°
2026-04-25 23:29 25.04545 -78.24365 36959 ft 482 kts 115°
2026-04-25 23:30 25.01789 -78.17653 36961 ft 479 kts 115°
2026-04-25 23:30 24.99026 -78.10975 36964 ft 479 kts 115°
2026-04-25 23:31 24.96264 -78.04299 36963 ft 479 kts 115°
2026-04-25 23:31 24.93505 -77.97630 36964 ft 478 kts 115°
2026-04-25 23:32 24.90735 -77.90962 36971 ft 478 kts 115°
2026-04-25 23:32 24.87958 -77.84305 36947 ft 479 kts 115°
2026-04-25 23:33 24.85187 -77.77637 36956 ft 479 kts 115°
2026-04-25 23:33 24.82413 -77.70975 36961 ft 479 kts 115°
2026-04-25 23:34 24.79649 -77.64355 36931 ft 480 kts 116°
2026-04-25 23:34 24.76853 -77.57668 36939 ft 482 kts 116°
2026-04-25 23:35 24.73644 -77.51217 36937 ft 480 kts 127°
2026-04-25 23:35 24.69862 -77.45147 36936 ft 482 kts 127°
2026-04-25 23:36 24.66084 -77.39055 36948 ft 482 kts 127°
2026-04-25 23:36 24.62305 -77.32954 36943 ft 483 kts 127°
2026-04-25 23:37 24.58518 -77.26855 36947 ft 483 kts 127°
2026-04-25 23:37 24.54717 -77.20767 36957 ft 483 kts 127°
2026-04-25 23:38 24.50910 -77.14673 36940 ft 484 kts 127°
2026-04-25 23:38 24.47107 -77.08576 36953 ft 484 kts 127°
2026-04-25 23:39 24.43295 -77.02471 36942 ft 487 kts 128°
2026-04-25 23:39 24.39439 -76.96320 36952 ft 491 kts 128°
2026-04-25 23:40 24.35589 -76.90192 36954 ft 491 kts 128°
2026-04-25 23:40 24.31719 -76.84027 36956 ft 491 kts 128°
2026-04-25 23:41 24.26478 -76.75672 36953 ft 492 kts 128°
2026-04-25 23:41 24.18696 -76.63350 36953 ft 492 kts 129°
2026-04-25 23:42 24.10917 -76.51025 36954 ft 492 kts 129°
2026-04-25 23:42 24.03128 -76.38715 36955 ft 492 kts 129°
2026-04-25 23:43 23.97423 -76.29736 36952 ft 492 kts 129°
2026-04-25 23:43 23.93519 -76.23589 36953 ft 492 kts 129°
2026-04-25 23:44 23.89612 -76.17445 36956 ft 492 kts 129°
2026-04-25 23:44 23.82317 -76.05990 36955 ft 492 kts 129°
2026-04-25 23:45 23.66603 -75.81429 36947 ft 498 kts 130°
2026-04-25 23:45 23.50767 -75.56805 36951 ft 496 kts 130°
2026-04-25 23:46 23.34861 -75.32182 36911 ft 500 kts 132°
2026-04-25 23:46 23.24001 -75.15410 36947 ft 503 kts 132°
2026-04-25 23:47 23.19976 -75.09220 36933 ft 501 kts 132°
2026-04-25 23:47 23.15947 -75.03046 36932 ft 502 kts 132°
2026-04-25 23:48 23.10881 -74.95287 36938 ft 503 kts 132°
2026-04-25 23:48 23.02787 -74.82861 36947 ft 504 kts 132°
2026-04-25 23:49 22.94662 -74.70476 36996 ft 512 kts 133°
2026-04-25 23:49 22.86405 -74.57880 36982 ft 512 kts 133°
2026-04-25 23:50 22.73577 -74.38361 36959 ft 510 kts 133°
2026-04-25 23:50 22.69456 -74.32121 36956 ft 509 kts 134°
2026-04-25 23:51 22.65327 -74.25894 36931 ft 511 kts 134°
2026-04-25 23:51 22.63233 -74.22741 36191 ft 520 kts 133°
2026-04-25 23:51 22.61131 -74.19562 35660 ft 518 kts 133°
2026-04-25 23:51 22.59042 -74.16395 35190 ft 513 kts 133°
2026-04-25 23:52 22.56991 -74.13279 34831 ft 506 kts 133°
2026-04-25 23:52 22.53121 -74.07406 34025 ft 495 kts 133°
2026-04-25 23:52 22.45279 -73.95611 32097 ft 472 kts 133°
2026-04-25 23:52 22.37722 -73.84279 30492 ft 458 kts 133°
2026-04-25 23:53 22.30236 -73.73078 27786 ft 470 kts 131°
2026-04-25 23:53 22.27652 -73.69191 27233 ft 457 kts 131°
2026-04-25 23:53 22.25820 -73.66425 26530 ft 450 kts 131°
2026-04-25 23:53 22.24009 -73.63701 25863 ft 444 kts 131°
2026-04-25 23:54 22.22213 -73.61011 25235 ft 438 kts 131°
2026-04-25 23:54 22.20439 -73.58366 24631 ft 433 kts 131°
2026-04-25 23:54 22.18678 -73.55748 24035 ft 427 kts 131°
2026-04-25 23:54 22.16949 -73.53176 23433 ft 422 kts 130°
2026-04-25 23:55 22.15240 -73.50634 22737 ft 416 kts 130°
2026-04-25 23:55 22.13558 -73.48125 22135 ft 409 kts 130°
2026-04-25 23:55 22.11903 -73.45655 21570 ft 401 kts 130°
2026-04-25 23:55 22.10284 -73.43241 21111 ft 392 kts 130°
2026-04-25 23:56 22.08706 -73.40894 20651 ft 383 kts 130°
2026-04-25 23:56 22.07160 -73.38593 20190 ft 374 kts 130°
2026-04-25 23:56 22.05649 -73.36343 19757 ft 367 kts 130°
2026-04-25 23:56 22.04172 -73.34142 19327 ft 360 kts 130°
2026-04-25 23:57 22.02717 -73.31974 18902 ft 354 kts 130°
2026-04-25 23:57 22.01273 -73.29828 18483 ft 354 kts 130°
2026-04-25 23:57 21.99820 -73.27676 18043 ft 356 kts 129°
2026-04-25 23:57 21.98358 -73.25511 17600 ft 357 kts 129°
2026-04-25 23:58 21.96899 -73.23347 17172 ft 357 kts 129°
2026-04-25 23:58 21.95453 -73.21205 16767 ft 358 kts 129°
2026-04-25 23:58 21.93988 -73.19038 16355 ft 358 kts 129°
2026-04-25 23:58 21.92527 -73.16876 15947 ft 358 kts 129°
2026-04-25 23:59 21.91061 -73.14703 15542 ft 358 kts 129°
2026-04-25 23:59 21.89601 -73.12533 15135 ft 358 kts 129°
2026-04-25 23:59 21.88147 -73.10370 14719 ft 353 kts 129°
2026-04-25 23:59 21.86725 -73.08253 14336 ft 344 kts 129°
2026-04-26 00:00 21.85336 -73.06193 13952 ft 337 kts 129°
2026-04-26 00:00 21.83971 -73.04173 13553 ft 330 kts 129°
2026-04-26 00:00 21.82734 -73.02133 13203 ft 323 kts 119°
2026-04-26 00:00 21.81921 -72.99914 12870 ft 317 kts 106°
2026-04-26 00:01 21.81562 -72.97584 12534 ft 317 kts 94°
2026-04-26 00:01 21.81425 -72.95218 12183 ft 317 kts 94°
2026-04-26 00:01 21.81283 -72.92844 11843 ft 318 kts 94°
2026-04-26 00:01 21.81135 -72.90473 11487 ft 318 kts 95°
2026-04-26 00:02 21.80988 -72.88127 11131 ft 318 kts 95°
2026-04-26 00:02 21.80840 -72.85754 10773 ft 318 kts 95°
2026-04-26 00:02 21.80691 -72.83381 10389 ft 318 kts 95°
2026-04-26 00:02 21.80541 -72.81006 10029 ft 318 kts 95°
2026-04-26 00:03 21.80392 -72.78647 9736 ft 314 kts 95°
2026-04-26 00:03 21.80244 -72.76306 9336 ft 312 kts 94°
2026-04-26 00:03 21.80098 -72.74007 8878 ft 306 kts 94°
2026-04-26 00:03 21.79956 -72.71754 8480 ft 297 kts 94°
2026-04-26 00:04 21.79817 -72.69572 8096 ft 289 kts 94°
2026-04-26 00:04 21.79684 -72.67441 7724 ft 281 kts 94°
2026-04-26 00:04 21.79553 -72.65370 7349 ft 275 kts 94°
2026-04-26 00:04 21.79423 -72.63340 6969 ft 269 kts 94°
2026-04-26 00:05 21.79293 -72.61359 6610 ft 263 kts 94°
2026-04-26 00:05 21.79164 -72.59408 6227 ft 259 kts 94°
2026-04-26 00:05 21.79040 -72.57493 5853 ft 254 kts 94°
2026-04-26 00:05 21.78920 -72.55620 5530 ft 248 kts 94°
2026-04-26 00:06 21.78803 -72.53792 5181 ft 243 kts 94°
2026-04-26 00:06 21.78687 -72.51991 4824 ft 240 kts 94°
2026-04-26 00:06 21.78572 -72.50190 4245 ft 245 kts 94°
2026-04-26 00:06 21.78453 -72.48338 3636 ft 248 kts 93°
2026-04-26 00:07 21.78336 -72.46510 3022 ft 242 kts 93°
2026-04-26 00:07 21.78232 -72.44718 2409 ft 237 kts 92°
2026-04-26 00:07 21.78146 -72.42983 1999 ft 223 kts 92°
2026-04-26 00:07 21.78071 -72.41404 1979 ft 201 kts 91°
2026-04-26 00:08 21.78003 -72.39987 1973 ft 179 kts 92°
2026-04-26 00:08 21.77942 -72.38740 1970 ft 156 kts 91°
2026-04-26 00:08 21.77889 -72.37588 1755 ft 153 kts 91°
2026-04-26 00:08 21.77837 -72.36462 1534 ft 147 kts 91°
2026-04-26 00:09 21.77787 -72.35387 1349 ft 141 kts 92°
2026-04-26 00:09 21.77736 -72.34342 1166 ft 138 kts 91°
2026-04-26 00:09 21.77688 -72.33309 990 ft 138 kts 92°
2026-04-26 00:09 21.77625 -72.32280 820 ft 139 kts 92°
2026-04-26 00:10 21.77585 -72.31237 625 ft 140 kts 88°
2026-04-26 00:10 21.77547 -72.30196 397 ft 140 kts 93°
2026-04-26 00:10 21.77488 -72.29143 229 ft 138 kts 89°
2026-04-26 00:10 21.77431 -72.28118 74 ft 139 kts 90°
2026-04-26 00:11 21.77390 -72.27155 44 ft 107 kts 93°
2026-04-26 00:11 21.77359 -72.26550 45 ft 53 kts 93°
2026-04-26 00:11 21.77348 -72.26345 45 ft 10 kts 93°
2026-04-26 00:11 21.77328 -72.26269 44 ft 11 kts 111°
2026-04-26 00:12 21.77342 -72.26277 43 ft 10 kts 276°
2026-04-26 00:12 21.77348 -72.26395 45 ft 19 kts 273°
2026-04-26 00:12 21.77357 -72.26544 45 ft 21 kts 273°
2026-04-26 00:12 21.77365 -72.26709 44 ft 23 kts 273°
2026-04-26 00:13 21.77374 -72.26882 45 ft 23 kts 273°
2026-04-26 00:13 21.77387 -72.27049 45 ft 19 kts 291°
2026-04-26 00:13 21.77478 -72.27068 43 ft 13 kts 355°
2026-04-26 00:13 21.77512 -72.27146 45 ft 9 kts 272°
2026-04-26 00:14 21.77551 -72.27163 45 ft 8 kts 27°
2026-04-26 00:14 21.77583 -72.27140 44 ft 1 kts 34°
2026-04-26 00:14 21.77577 -72.27144 45 ft 0 kts 34°